User: anonymous   Login
Location: Unspecified
(0.0000°N, 0.0000°E)
Time: 04:40:07
(UTC+02:00)
Language:

Resurs 1-3 - Orbit

View from above orbital plane
View from above orbital plane
View from above satellite
View from above satellite

Ground track
Ground track

The orbit data is extracted from the following two-line orbital elements,

1 23342U 94074A   17087.65390015 +.00000112 +00000-0 +22186-4 0  9997
2 23342 098.0882 125.4591 0001552 070.2866 289.8512 14.79252268205604
Epoch (UTC): 28 March 2017 15:41:36
Eccentricity: 0.0001552
inclination: 98.0882°
perigee height: 630 km
apogee height: 633 km
right ascension of ascending node: 125.4591°
argument of perigee: 70.2866°
revolutions per day: 14.79252268
mean anomaly at epoch: 289.8512°
orbit number at epoch: 20560

The dashed part of the orbit path shows where the satellite is in the earth's shadow,  

DLR